Fulton, NY
on Sunday, December 10, 2017

Sunday
       
Previous Day Next Day
Daily Summary
 ActualAverage (KSYR)Record (KSYR)
Temperature
Mean Temperature °F °C °F °C  
Max Temperature 32°F 0°C 38°F 3°C 70°F 21°C (1966)
Min Temperature 28°F -2°C 23°F -5°C -1°F -18°C (1982)
Degree Days
Heating Degree Days 35    
Moisture
Dew Point 24°F -4°C   
Average Humidity 81    
Maximum Humidity 92    
Minimum Humidity 52    
Precipitation
Precipitation 0.11 in / 2.79 cm in / cm in / cm ()
Wind
Wind Speed 9 mph / 14 km/h   
Max Wind Speed 18 mph / 29 km/h   
Max Gust Speed 29 mph / 47 km/h   
Visibility 4 miles / 7 kilometers   
Events Fog , Snow   
Averages and records for this station are not official NWS values.
Key: T is trace of precipitation, MM is missing value
Source: NWS Daily Summary
Seasonal Weather Averages
Time(EST)TemperatureDew PointHumidity Pressure Visibility Wind DirectionWind SpeedGust SpeedPrecipitationEvents Conditions
12:54 AM 28.0°F -2.2°C 19.9°F -6.7°C 72% 29.73 in / 1006.7 hPa 10.0 miles / 16.1 kilometers SW 5.8 mph / 9.3 km/h - N/A   Mostly Cloudy
1:54 AM 28.9°F -1.7°C 19.9°F -6.7°C 69% 29.73 in / 1006.7 hPa 10.0 miles / 16.1 kilometers WSW 6.9 mph / 11.1 km/h - N/A   Overcast
2:17 AM 28.9°F -1.7°C 21.9°F -5.6°C 75% 29.72 in / 1006.3 hPa 1.8 miles / 2.8 kilometers WSW 6.9 mph / 11.1 km/h - 0.00 in / 0.0 cm Snow Light Snow
2:26 AM 28.9°F -1.7°C 23.0°F -5.0°C 78% 29.72 in / 1006.3 hPa 1.8 miles / 2.8 kilometers SW 6.9 mph / 11.1 km/h - 0.00 in / 0.0 cm Snow Light Snow
2:43 AM 28.0°F -2.2°C 24.1°F -4.4°C 85% 29.73 in / 1006.7 hPa 1.0 miles / 1.6 kilometers WSW 9.2 mph / 14.8 km/h - 0.02 in / 0.5 cm Snow Light Snow
2:54 AM 28.0°F -2.2°C 25.0°F -3.9°C 88% 29.75 in / 1007.2 hPa 0.5 miles / 0.8 kilometers WSW 6.9 mph / 11.1 km/h - 0.03 in / 0.8 cm Fog , Snow Snow
3:10 AM 28.0°F -2.2°C 25.0°F -3.9°C 88% 29.73 in / 1006.7 hPa 1.2 miles / 2.0 kilometers SW 5.8 mph / 9.3 km/h - 0.01 in / 0.3 cm Snow Light Snow
3:20 AM 28.0°F -2.2°C 25.0°F -3.9°C 88% 29.73 in / 1006.7 hPa 2.0 miles / 3.2 kilometers SW 5.8 mph / 9.3 km/h - 0.01 in / 0.3 cm Snow Light Snow
3:29 AM 28.0°F -2.2°C 25.0°F -3.9°C 88% 29.73 in / 1006.7 hPa 1.5 miles / 2.4 kilometers WSW 6.9 mph / 11.1 km/h - 0.01 in / 0.3 cm Snow Light Snow
3:38 AM 28.0°F -2.2°C 25.0°F -3.9°C 88% 29.73 in / 1006.7 hPa 1.2 miles / 2.0 kilometers SW 6.9 mph / 11.1 km/h - 0.01 in / 0.3 cm Snow Light Snow
3:43 AM 28.0°F -2.2°C 25.0°F -3.9°C 88% 29.73 in / 1006.7 hPa 0.8 miles / 1.2 kilometers SW 8.1 mph / 13.0 km/h - 0.01 in / 0.3 cm Snow Light Snow
3:54 AM 28.0°F -2.2°C 25.0°F -3.9°C 88% 29.74 in / 1007.0 hPa 1.2 miles / 2.0 kilometers SW 6.9 mph / 11.1 km/h - 0.02 in / 0.5 cm Snow Light Snow
4:04 AM 28.0°F -2.2°C 25.0°F -3.9°C 88% 29.72 in / 1006.3 hPa 2.5 miles / 4.0 kilometers SW 5.8 mph / 9.3 km/h - 0.00 in / 0.0 cm Snow Light Snow
4:20 AM 28.0°F -2.2°C 23.0°F -5.0°C 81% 29.72 in / 1006.3 hPa 4.0 miles / 6.4 kilometers SW 6.9 mph / 11.1 km/h - 0.00 in / 0.0 cm Snow Light Snow
4:39 AM 28.9°F -1.7°C 23.0°F -5.0°C 78% 29.72 in / 1006.3 hPa 10.0 miles / 16.1 kilometers SW 8.1 mph / 13.0 km/h - 0.00 in / 0.0 cm   Overcast
4:54 AM 28.9°F -1.7°C 23.0°F -5.0°C 78% 29.74 in / 1006.9 hPa 10.0 miles / 16.1 kilometers SW 10.4 mph / 16.7 km/h - 0.00 in / 0.0 cm   Overcast
5:54 AM 30.0°F -1.1°C 25.0°F -3.9°C 82% 29.75 in / 1007.5 hPa 8.0 miles / 12.9 kilometers WSW 11.5 mph / 18.5 km/h - N/A   Overcast
6:05 AM 30.0°F -1.1°C 25.0°F -3.9°C 82% 29.74 in / 1007.0 hPa 2.5 miles / 4.0 kilometers WSW 12.7 mph / 20.4 km/h - 0.00 in / 0.0 cm Snow Light Snow
6:12 AM 30.0°F -1.1°C 26.1°F -3.3°C 85% 29.74 in / 1007.0 hPa 1.0 miles / 1.6 kilometers WSW 13.8 mph / 22.2 km/h - 0.00 in / 0.0 cm Snow Light Snow
6:24 AM 30.0°F -1.1°C 27.0°F -2.8°C 88% 29.74 in / 1007.0 hPa 0.5 miles / 0.8 kilometers WSW 11.5 mph / 18.5 km/h - 0.00 in / 0.0 cm Fog , Snow Snow
6:36 AM 28.9°F -1.7°C 27.0°F -2.8°C 92% 29.75 in / 1007.3 hPa 0.5 miles / 0.8 kilometers West 10.4 mph / 16.7 km/h - 0.01 in / 0.3 cm Fog , Snow Snow
6:47 AM 30.0°F -1.1°C 27.0°F -2.8°C 88% 29.75 in / 1007.3 hPa 1.2 miles / 2.0 kilometers WSW 12.7 mph / 20.4 km/h - 0.01 in / 0.3 cm Snow Light Snow
6:54 AM 30.0°F -1.1°C 27.0°F -2.8°C 88% 29.77 in / 1008.1 hPa 2.0 miles / 3.2 kilometers WSW 12.7 mph / 20.4 km/h - 0.01 in / 0.3 cm Snow Light Snow
7:03 AM 30.0°F -1.1°C 27.0°F -2.8°C 88% 29.76 in / 1007.7 hPa 4.0 miles / 6.4 kilometers WSW 9.2 mph / 14.8 km/h - 0.00 in / 0.0 cm Snow Light Snow
7:11 AM 30.0°F -1.1°C 27.0°F -2.8°C 88% 29.77 in / 1008.0 hPa 5.0 miles / 8.0 kilometers WSW 8.1 mph / 13.0 km/h - 0.00 in / 0.0 cm   Overcast
7:54 AM 32.0°F 0.0°C 23.0°F -5.0°C 69% 29.81 in / 1009.2 hPa 10.0 miles / 16.1 kilometers West 11.5 mph / 18.5 km/h - 0.00 in / 0.0 cm   Overcast
8:47 AM 32.0°F 0.0°C 23.0°F -5.0°C 69% 29.80 in / 1009.0 hPa 2.5 miles / 4.0 kilometers West 11.5 mph / 18.5 km/h - 0.00 in / 0.0 cm Snow Light Snow
8:52 AM 30.2°F -1.0°C 24.8°F -4.0°C 80% 29.81 in / 1009.4 hPa 1.0 miles / 1.6 kilometers WSW 16.1 mph / 25.9 km/h 21.9 mph / 35.2 km/h 0.00 in / 0.0 cm Snow Light Snow
8:54 AM 30.0°F -1.1°C 25.0°F -3.9°C 82% 29.83 in / 1009.9 hPa 0.8 miles / 1.2 kilometers WSW 15.0 mph / 24.1 km/h 21.9 mph / 35.2 km/h 0.01 in / 0.3 cm Snow Light Snow
9:07 AM 30.0°F -1.1°C 27.0°F -2.8°C 88% 29.81 in / 1009.4 hPa 0.2 miles / 0.4 kilometers WSW 10.4 mph / 16.7 km/h - 0.01 in / 0.3 cm Fog , Snow Heavy Snow
9:17 AM 30.0°F -1.1°C 28.0°F -2.2°C 92% 29.81 in / 1009.4 hPa 0.2 miles / 0.4 kilometers WSW 9.2 mph / 14.8 km/h - 0.01 in / 0.3 cm Fog , Snow Snow
9:24 AM 30.0°F -1.1°C 28.0°F -2.2°C 92% 29.81 in / 1009.4 hPa 1.2 miles / 2.0 kilometers WSW 9.2 mph / 14.8 km/h - 0.01 in / 0.3 cm Snow Light Snow
9:29 AM 30.0°F -1.1°C 28.0°F -2.2°C 92% 29.81 in / 1009.4 hPa 0.8 miles / 1.2 kilometers SW 8.1 mph / 13.0 km/h - 0.01 in / 0.3 cm Snow Light Snow
9:54 AM 30.0°F -1.1°C 28.0°F -2.2°C 92% 29.84 in / 1010.3 hPa 0.2 miles / 0.4 kilometers WSW 10.4 mph / 16.7 km/h 19.6 mph / 31.5 km/h 0.04 in / 1.0 cm Fog , Snow Heavy Snow
10:05 AM 30.0°F -1.1°C 27.0°F -2.8°C 88% 29.82 in / 1009.7 hPa 1.2 miles / 2.0 kilometers WSW 9.2 mph / 14.8 km/h - 0.00 in / 0.0 cm Snow Light Snow
10:08 AM 30.0°F -1.1°C 27.0°F -2.8°C 88% 29.82 in / 1009.7 hPa 3.0 miles / 4.8 kilometers WSW 8.1 mph / 13.0 km/h - 0.00 in / 0.0 cm Snow Light Snow
10:15 AM 30.9°F -0.6°C 26.1°F -3.3°C 82% 29.82 in / 1009.7 hPa 8.0 miles / 12.9 kilometers WSW 11.5 mph / 18.5 km/h - 0.00 in / 0.0 cm   Overcast
10:26 AM 30.9°F -0.6°C 24.1°F -4.4°C 76% 29.82 in / 1009.7 hPa 10.0 miles / 16.1 kilometers WSW 15.0 mph / 24.1 km/h - 0.00 in / 0.0 cm   Overcast
10:54 AM 30.9°F -0.6°C 21.9°F -5.6°C 69% 29.84 in / 1010.4 hPa 9.0 miles / 14.5 kilometers SW 17.3 mph / 27.8 km/h 25.3 mph / 40.7 km/h 0.00 in / 0.0 cm   Scattered Clouds
11:54 AM 30.9°F -0.6°C 21.0°F -6.1°C 67% 29.84 in / 1010.4 hPa 10.0 miles / 16.1 kilometers WSW 16.1 mph / 25.9 km/h 28.8 mph / 46.3 km/h N/A   Partly Cloudy
12:54 PM 30.9°F -0.6°C 17.1°F -8.3°C 57% 29.84 in / 1010.3 hPa 10.0 miles / 16.1 kilometers West 18.4 mph / 29.6 km/h 27.6 mph / 44.4 km/h N/A   Overcast
1:54 PM 32.0°F 0.0°C 16.0°F -8.9°C 52% 29.83 in / 1010.1 hPa 10.0 miles / 16.1 kilometers WSW 12.7 mph / 20.4 km/h 26.5 mph / 42.6 km/h N/A   Overcast
2:54 PM 30.0°F -1.1°C 18.0°F -7.8°C 61% 29.85 in / 1010.6 hPa 10.0 miles / 16.1 kilometers WSW 12.7 mph / 20.4 km/h 21.9 mph / 35.2 km/h 0.00 in / 0.0 cm   Overcast
3:54 PM 30.0°F -1.1°C 19.9°F -6.7°C 66% 29.86 in / 1010.9 hPa 10.0 miles / 16.1 kilometers SW 12.7 mph / 20.4 km/h - N/A   Overcast
4:54 PM 28.9°F -1.7°C 21.9°F -5.6°C 75% 29.87 in / 1011.5 hPa 5.0 miles / 8.0 kilometers SW 8.1 mph / 13.0 km/h - 0.00 in / 0.0 cm Snow Light Snow
5:54 PM 28.0°F -2.2°C 24.1°F -4.4°C 85% 29.88 in / 1011.9 hPa 5.0 miles / 8.0 kilometers SSW 11.5 mph / 18.5 km/h - 0.00 in / 0.0 cm Snow Light Snow
6:23 PM 28.0°F -2.2°C 25.0°F -3.9°C 88% 29.87 in / 1011.4 hPa 2.5 miles / 4.0 kilometers SSW 11.5 mph / 18.5 km/h - 0.00 in / 0.0 cm Snow Light Snow
6:30 PM 28.0°F -2.2°C 25.0°F -3.9°C 88% 29.87 in / 1011.4 hPa 2.5 miles / 4.0 kilometers SSW 10.4 mph / 16.7 km/h - 0.00 in / 0.0 cm Snow Light Snow
6:44 PM 28.0°F -2.2°C 25.0°F -3.9°C 88% 29.87 in / 1011.4 hPa 2.5 miles / 4.0 kilometers SSW 11.5 mph / 18.5 km/h - 0.00 in / 0.0 cm Snow Light Snow
6:54 PM 28.9°F -1.7°C 25.0°F -3.9°C 85% 29.89 in / 1012.0 hPa 3.0 miles / 4.8 kilometers SSW 11.5 mph / 18.5 km/h - 0.00 in / 0.0 cm Snow Light Snow
7:12 PM 28.9°F -1.7°C 25.0°F -3.9°C 85% 29.86 in / 1011.1 hPa 2.0 miles / 3.2 kilometers SSW 10.4 mph / 16.7 km/h - 0.00 in / 0.0 cm Snow Light Snow
7:28 PM 28.9°F -1.7°C 25.0°F -3.9°C 85% 29.86 in / 1011.1 hPa 3.0 miles / 4.8 kilometers SSW 13.8 mph / 22.2 km/h - 0.00 in / 0.0 cm Snow Light Snow
7:54 PM 28.9°F -1.7°C 24.1°F -4.4°C 82% 29.88 in / 1011.7 hPa 6.0 miles / 9.7 kilometers SSW 13.8 mph / 22.2 km/h 23.0 mph / 37.0 km/h 0.00 in / 0.0 cm Snow Light Snow
8:54 PM 28.9°F -1.7°C 24.1°F -4.4°C 82% 29.89 in / 1012.0 hPa 3.0 miles / 4.8 kilometers SW 11.5 mph / 18.5 km/h 23.0 mph / 37.0 km/h 0.00 in / 0.0 cm Snow Light Snow
9:54 PM 28.9°F -1.7°C 25.0°F -3.9°C 85% 29.88 in / 1011.9 hPa 7.0 miles / 11.3 kilometers SW 11.5 mph / 18.5 km/h - 0.00 in / 0.0 cm Snow Light Snow
10:54 PM 28.9°F -1.7°C 23.0°F -5.0°C 78% 29.90 in / 1012.3 hPa 10.0 miles / 16.1 kilometers SW 15.0 mph / 24.1 km/h - 0.00 in / 0.0 cm   Overcast
11:54 PM 30.0°F -1.1°C 21.9°F -5.6°C 72% 29.89 in / 1012.2 hPa 10.0 miles / 16.1 kilometers SW 15.0 mph / 24.1 km/h 21.9 mph / 35.2 km/h N/A   Overcast